CW9451 Weather Reports


Display with metric or nautical units.
time (UTC)temp
F
wind
direction
speed
MPH
gust
MPH
rain 1hr
in
rain 24hr
in
rain mn
in
humidity
%
barometer
mb
20260509174903 68 0.0 0.0 0.00 0.00 0.00 67 1017.2
20260509173908 68 0.0 0.0 0.00 0.00 0.00 66 1017.4
20260509171905 73 0.0 0.0 0.00 0.00 0.00 63 1017.8
20260509170904 67 0.0 0.0 0.00 0.00 0.00 67 1017.3
20260509165904 67 0.0 0.0 0.00 0.00 0.00 67 1017.3
20260509164904 67 0.0 0.0 0.00 0.00 0.00 67 1017.5
20260509163903 68 0.0 0.0 0.00 0.00 0.00 67 1017.4
20260509162904 68 0.0 0.0 0.00 0.00 0.00 65 1017.4
20260509161909 68 0.0 0.0 0.00 0.00 0.00 64 1017.3
20260509154903 73 0.0 0.0 0.00 0.00 0.00 58 1017.3
20260509153904 76 0.0 0.0 0.00 0.00 0.00 57 1017.4
20260509152905 76 0.0 0.0 0.00 0.00 0.00 56 1017.9
20260509151905 75 0.0 0.0 0.00 0.00 0.00 58 1017.9
20260509150903 73 0.0 0.0 0.00 0.00 0.00 56 1017.9
20260509145904 73 0.0 0.0 0.00 0.00 0.00 57 1017.9
20260509144904 74 0.0 0.0 0.00 0.00 0.00 56 1018.2
20260509143908 73 0.0 0.0 0.00 0.00 0.00 58 1018.3
20260509141909 70 0.0 0.0 0.00 0.00 0.00 60 1018.4
20260509135905 71 0.0 0.0 0.00 0.00 0.00 62 1018.9
20260509134904 71 0.0 0.0 0.00 0.00 0.00 63 1018.9
20260509133904 71 0.0 0.0 0.00 0.00 0.00 65 1019.4
20260509132904 72 0.0 0.0 0.00 0.00 0.00 64 1019.4
20260509131905 71 0.0 0.0 0.00 0.00 0.00 65 1019.7
20260509130905 71 0.0 0.0 0.00 0.00 0.00 66 1019.9
20260509125909 69 0.0 0.0 0.00 0.00 0.00 68 1020.0
20260509123903 68 0.0 0.0 0.00 0.00 0.00 72 1020.5
20260509122904 66 0.0 0.0 0.00 0.00 0.00 73 1020.5
20260509121905 65 0.0 0.0 0.00 0.00 0.00 74 1020.6
20260509120909 64 0.0 0.0 0.00 0.00 0.00 74 1020.5
20260509114904 67 0.0 0.0 0.00 0.00 0.00 73 1021.1
20260509113903 66 0.0 0.0 0.00 0.00 0.00 76 1021.4
20260509112903 63 0.0 0.0 0.00 0.00 0.00 79 1021.2
20260509111903 63 0.0 0.0 0.00 0.00 0.00 81 1021.4
20260509110908 62 0.0 0.0 0.00 0.00 0.00 81 1021.3
20260509104904 62 0.0 0.0 0.00 0.00 0.00 79 1021.4
20260509103904 62 0.0 0.0 0.00 0.00 0.00 79 1021.3
20260509102909 63 0.0 0.0 0.00 0.00 0.00 79 1021.6
20260509100905 63 0.0 0.0 0.00 0.00 0.00 84 1022.3
20260509095904 61 0.0 0.0 0.00 0.00 0.00 86 1022.3
20260509094904 60 0.0 0.0 0.00 0.00 0.00 91 1022.4
20260509093903 59 0.0 0.0 0.00 0.00 0.00 92 1022.3
20260509092903 59 0.0 0.0 0.00 0.00 0.00 91 1022.3
20260509091908 59 0.0 0.0 0.00 0.00 0.00 92 1022.4
20260509085904 59 0.0 0.0 0.00 0.00 0.00 98 1022.8
20260509084908 57 0.0 0.0 0.00 0.00 0.00 97 1022.7
20260509082904 57 0.0 0.0 0.00 0.00 0.00 98 1022.8
20260509081904 56 0.0 0.0 0.00 0.00 0.00 99 1022.7
20260509080905 56 0.0 0.0 0.00 0.00 0.00 10 1022.8
20260509075905 56 0.0 0.0 0.00 0.00 0.00 10 1022.8
20260509074904 56 0.0 0.0 0.00 0.00 0.00 10 1022.8
20260509073904 55 0.0 0.0 0.00 0.00 0.00 10 1022.6
20260509072908 55 0.0 0.0 0.00 0.00 0.00 10 1022.8
20260509065903 55 0.0 0.0 0.00 0.00 0.00 10 1022.7
20260509064908 55 0.0 0.0 0.00 0.00 0.00 10 1022.7
20260509062904 54 0.0 0.0 0.00 0.00 0.00 10 1022.6
20260509061909 53 0.0 0.0 0.00 0.00 0.00 10 1022.5
20260509055908 53 0.0 0.0 0.00 0.00 0.00 10 1022.7
20260509053904 53 0.0 0.0 0.00 0.00 0.00 10 1022.6
20260509052905 53 0.0 0.0 0.00 0.00 0.00 10 1022.5
20260509051909 52 0.0 0.0 0.00 0.00 0.00 10 1022.3
20260509050904 52 0.0 0.0 0.00 0.00 0.00 10 1022.2
20260509045903 52 0.0 0.0 0.00 0.00 0.00 10 1022.3
20260509044908 52 0.0 0.0 0.00 0.00 0.00 10 1022.2
20260509042908 52 0.0 0.0 0.00 0.00 0.00 10 1022.1
20260509035904 52 0.0 0.0 0.00 0.00 0.00 10 1022.1
20260509034904 52 0.0 0.0 0.00 0.00 0.00 10 1022.0
20260509033905 52 0.0 0.0 0.00 0.00 0.00 10 1022.0
20260509032904 52 0.0 0.0 0.00 0.00 0.00 10 1022.0
20260509031908 52 0.0 0.0 0.00 0.00 0.00 10 1022.1
20260509025905 52 0.0 0.0 0.00 0.00 0.00 10 1022.2
20260509024904 52 0.0 0.0 0.00 0.00 0.00 10 1022.3
20260509023904 52 0.0 0.0 0.00 0.00 0.00 10 1022.5
20260509022904 52 0.0 0.0 0.00 0.00 0.00 10 1022.4
20260509021905 52 0.0 0.0 0.00 0.00 0.00 10 1022.3
20260509020905 52 0.0 0.0 0.00 0.00 0.00 10 1022.2
20260509015904 52 0.0 0.0 0.00 0.00 0.00 10 1022.2
20260509014904 52 0.0 0.0 0.00 0.00 0.00 10 1022.1
20260509013904 52 0.0 0.0 0.00 0.00 0.00 10 1022.1
20260509012905 52 0.0 0.0 0.00 0.00 0.00 10 1022.0
20260509011904 52 0.0 0.0 0.00 0.00 0.00 10 1022.0
20260509010904 52 0.0 0.0 0.00 0.00 0.00 10 1022.1
20260509005909 52 0.0 0.0 0.00 0.00 0.00 10 1022.0
20260509003904 52 0.0 0.0 0.00 0.00 0.00 10 1022.2
20260509002905 52 0.0 0.0 0.00 0.00 0.00 10 1022.2
20260509001904 52 0.0 0.0 0.00 0.00 0.00 10 1022.1
20260509000904 53 0.0 0.0 0.00 0.00 0.00 10 1022.0
20260508235905 52 0.0 0.0 0.00 0.00 0.00 10 1022.0
20260508234904 52 0.0 0.0 0.00 0.00 0.00 10 1021.9
20260508233904 52 0.0 0.0 0.00 0.00 0.00 10 1021.9
20260508232905 52 0.0 0.0 0.00 0.00 0.00 10 1021.9
20260508231904 53 0.0 0.0 0.00 0.00 0.00 10 1022.0
20260508230903 53 0.0 0.0 0.00 0.00 0.00 10 1022.1
20260508225908 53 0.0 0.0 0.00 0.00 0.00 10 1022.1
20260508223903 53 0.0 0.0 0.00 0.00 0.00 10 1022.0
20260508222908 53 0.0 0.0 0.00 0.00 0.00 10 1022.0
20260508220903 53 0.0 0.0 0.00 0.00 0.00 10 1021.9
20260508215904 53 0.0 0.0 0.00 0.00 0.00 10 1021.9
20260508214905 53 0.0 0.0 0.00 0.00 0.00 10 1021.8
20260508213904 53 0.0 0.0 0.00 0.00 0.00 10 1021.9
20260508212908 53 0.0 0.0 0.00 0.00 0.00 10 1021.8
20260508210904 53 0.0 0.0 0.00 0.00 0.00 99 1022.0
20260508205904 53 0.0 0.0 0.00 0.00 0.00 99 1021.9
20260508204905 53 0.0 0.0 0.00 0.00 0.00 99 1021.9
20260508203904 53 0.0 0.0 0.00 0.00 0.00 99 1021.9
20260508202904 53 0.0 0.0 0.00 0.00 0.00 98 1021.8
20260508201904 53 0.0 0.0 0.00 0.00 0.00 98 1021.7
20260508200904 54 0.0 0.0 0.00 0.00 0.00 99 1021.8
20260508195904 54 0.0 0.0 0.00 0.00 0.00 98 1021.7
20260508194905 54 0.0 0.0 0.00 0.00 0.00 97 1021.7
20260508193909 54 0.0 0.0 0.00 0.00 0.00 96 1021.7
20260508191904 54 0.0 0.0 0.00 0.00 0.00 95 1021.5
20260508190904 54 0.0 0.0 0.00 0.00 0.00 94 1021.3
20260508185903 54 0.0 0.0 0.00 0.00 0.00 94 1021.1
20260508184904 54 0.0 0.0 0.00 0.00 0.00 94 1021.1
20260508183904 54 0.0 0.0 0.00 0.00 0.00 94 1021.1
20260508182905 54 0.0 0.0 0.00 0.00 0.00 94 1021.0
20260508181905 54 0.0 0.0 0.00 0.00 0.00 94 1021.1
20260508180909 55 0.0 0.0 0.00 0.00 0.00 94 1020.9